TimeAKDT,TemperatureF,Dew PointF,Humidity,Sea Level PressureIn,VisibilityMPH,Wind Direction,Wind SpeedMPH,Gust SpeedMPH,PrecipitationIn,Events,Conditions,WindDirDegrees,DateUTC
12:53 AM,37.0,35.1,93,29.41,8.0,SE,12.7,-,0.08,Rain,Light Rain,130,2014-03-14 08:53:00
1:53 AM,37.0,35.1,93,29.42,10.0,ESE,15.0,24.2,0.05,Rain,Light Rain,120,2014-03-14 09:53:00
2:18 AM,37.0,36.0,96,29.42,10.0,ESE,17.3,25.3,0.02,Rain,Light Rain,120,2014-03-14 10:18:00
2:53 AM,37.9,37.0,97,29.44,6.0,ESE,16.1,21.9,0.04,Rain,Light Rain,120,2014-03-14 10:53:00
3:08 AM,37.9,37.9,100,29.45,4.0,ESE,12.7,-,0.02,Rain,Light Rain,120,2014-03-14 11:08:00
3:33 AM,41.0,41.0,100,29.47,10.0,South,5.8,-,0.03,,Overcast,190,2014-03-14 11:33:00
3:43 AM,41.0,39.9,96,29.48,10.0,South,6.9,-,0.03,,Overcast,180,2014-03-14 11:43:00
3:53 AM,41.0,39.9,96,29.49,10.0,South,8.1,-,0.03,,Overcast,180,2014-03-14 11:53:00
4:53 AM,39.9,39.9,100,29.52,10.0,SE,9.2,-,N/A,,Overcast,140,2014-03-14 12:53:00
5:53 AM,39.9,39.0,97,29.54,10.0,SE,9.2,-,N/A,,Mostly Cloudy,130,2014-03-14 13:53:00
6:53 AM,39.9,39.9,100,29.56,10.0,SE,9.2,-,0.01,Rain,Light Rain,140,2014-03-14 14:53:00
7:53 AM,41.0,39.9,96,29.57,10.0,SSE,12.7,19.6,0.00,,Overcast,150,2014-03-14 15:53:00
8:53 AM,42.1,41.0,96,29.59,10.0,SE,11.5,-,N/A,,Overcast,140,2014-03-14 16:53:00
9:12 AM,42.1,41.0,96,29.60,9.0,SSE,11.5,20.7,N/A,,Overcast,160,2014-03-14 17:12:00
9:28 AM,41.0,41.0,100,29.61,8.0,SSE,9.2,-,N/A,,Overcast,160,2014-03-14 17:28:00
9:38 AM,41.0,41.0,100,29.62,9.0,South,6.9,-,0.00,Rain,Light Rain,170,2014-03-14 17:38:00
9:53 AM,41.0,39.9,96,29.63,5.0,South,9.2,-,0.01,Rain,Light Rain,180,2014-03-14 17:53:00
10:06 AM,41.0,39.9,96,29.63,5.0,South,9.2,18.4,0.02,Rain,Light Rain,180,2014-03-14 18:06:00
10:29 AM,39.0,39.0,100,29.65,9.0,SSW,10.4,18.4,0.04,Rain,Light Rain,200,2014-03-14 18:29:00
10:53 AM,39.0,39.0,100,29.67,9.0,Variable,4.6,-,0.07,Rain,Light Rain,0,2014-03-14 18:53:00
11:06 AM,39.9,39.9,100,29.67,7.0,Variable,5.8,-,0.01,Rain,Light Rain,0,2014-03-14 19:06:00
11:32 AM,41.0,41.0,100,29.69,10.0,Variable,6.9,-,0.01,,Overcast,0,2014-03-14 19:32:00
11:53 AM,42.1,41.0,96,29.71,10.0,South,6.9,-,0.01,,Overcast,190,2014-03-14 19:53:00
12:07 PM,43.0,41.0,93,29.71,10.0,South,6.9,-,N/A,,Overcast,190,2014-03-14 20:07:00
12:53 PM,43.0,39.9,89,29.75,10.0,Variable,5.8,-,N/A,,Overcast,0,2014-03-14 20:53:00
1:53 PM,45.0,39.0,80,29.80,10.0,SW,8.1,-,N/A,,Overcast,220,2014-03-14 21:53:00
2:53 PM,46.0,37.0,71,29.84,10.0,WSW,10.4,16.1,N/A,,Mostly Cloudy,250,2014-03-14 22:53:00
3:53 PM,41.0,35.1,79,29.89,10.0,SSW,8.1,-,0.00,Rain,Light Rain,200,2014-03-14 23:53:00
4:53 PM,42.1,36.0,79,29.91,10.0,South,9.2,-,0.00,,Mostly Cloudy,190,2014-03-15 00:53:00
5:53 PM,41.0,36.0,82,29.94,10.0,SSE,4.6,-,N/A,,Overcast,150,2014-03-15 01:53:00
6:53 PM,39.9,35.1,83,29.96,10.0,South,5.8,-,N/A,,Overcast,180,2014-03-15 02:53:00
7:53 PM,39.9,35.1,83,29.98,10.0,South,4.6,-,N/A,,Overcast,180,2014-03-15 03:53:00
8:48 PM,39.2,35.6,87,29.98,10.0,South,4.6,-,N/A,,Overcast,180,2014-03-15 04:48:00
8:53 PM,39.0,35.1,86,29.99,10.0,South,4.6,-,N/A,,Overcast,180,2014-03-15 04:53:00
9:24 PM,37.9,34.0,86,29.99,10.0,Calm,Calm,-,N/A,,Overcast,0,2014-03-15 05:24:00
9:53 PM,37.9,34.0,86,30.00,10.0,Calm,Calm,-,N/A,,Overcast,0,2014-03-15 05:53:00
10:14 PM,37.9,35.1,89,29.99,10.0,East,3.5,-,N/A,,Overcast,100,2014-03-15 06:14:00
10:22 PM,39.0,36.0,89,29.99,10.0,ESE,5.8,-,N/A,,Overcast,120,2014-03-15 06:22:00
10:53 PM,39.0,36.0,89,29.99,10.0,ESE,9.2,-,N/A,,Overcast,120,2014-03-15 06:53:00
11:53 PM,39.0,37.0,93,29.97,10.0,ESE,11.5,-,N/A,,Overcast,120,2014-03-15 07:53:00